Tracking 25710 objects as of 6-Jul-2022
HD Live streaming from Space Station
objects crossing your sky now

LEMUR 2 HANCOM-1

Track LEMUR 2 HANCOM-1 now!
10-day predictions
LEMUR 2 HANCOM-1 is classified as:


NORAD ID: 52740
Int'l Code: 2022-057J
Perigee: 527.8 km
Apogee: 545.3 km
Inclination: 97.5 °
Period: 95.2 minutes
Semi major axis: 6907 km
RCS: Unknown
Launch date: May 25, 2022
Source: United States (US)
Launch site: AIR FORCE EASTERN TEST RANGE (AFETR)
aabbcc
Your satellite tracking list
Your tracking list is empty




NASA's NSSDC Master Catalog

Two Line Element Set (TLE):
1 52740U 22057J   22186.84683354  .00004464  00000-0  26166-3 0  9996
2 52740  97.5305 301.2960 0012695 113.7766 246.4797 15.12224953  6216
Source of the keplerian elements: AFSPC